Torna al catalogo

STARLINK-6138

AttivoComunicazioniVLEO
NORAD 57329·PAYLOAD·🇺🇸 United States

Lanciato Jul 16, 2023 da Cape Canaveral Space Force Station

Loading…

Prossimi Passaggi (prossime 24 ore)

TLE

AggiornatoSource: CelesTrak SupGP

Epoca: Sep 14, 2026, 14:53 UTC

1 57329C 23099B   26257.62062500 -.00011730  00000+0 -42474-3 0  2576
2 57329  42.9995 265.4455 0001467 270.6858 343.8468 15.27595028    12

Traccia STARLINK-6138 in tempo reale con AllMySat

Download on the App Store